This is the latest recevied weather packets stored in our database for station/object XW7RMR. If no packets are shown the sender has not sent any weather packets the latest 1 day(s).
| Time | Temp. | Humidity | Pressure | Rain* | Wind** | Luminosity | Snow |
|---|---|---|---|---|---|---|---|
| 1778115291 | 21.11° C | 58% | 1018.4 hPa | 0 mm | - | 176 W/m² | - |
| 1778114987 | 21.11° C | 58% | 1018.4 hPa | 0 mm | - | 204 W/m² | - |
| 1778114684 | 21.11° C | 58% | 1018.1 hPa | 0 mm | - | 204 W/m² | - |
| 1778114382 | 21.11° C | 58% | 1018.4 hPa | 0 mm | - | 414 W/m² | - |
| 1778114076 | 21.11° C | 56% | 1018.1 hPa | 0 mm | - | 189 W/m² | - |
| 1778113772 | 21.67° C | 57% | 1018.3 hPa | 0 mm | - | 191 W/m² | - |
| 1778113166 | 22.78° C | 55% | 1018.4 hPa | 0 mm | - | 450 W/m² | - |
| 1778112560 | 22.78° C | 56% | 1018.3 hPa | 0 mm | - | 464 W/m² | - |
| 1778111649 | 22.78° C | 56% | 1018.3 hPa | 0 mm | - | 550 W/m² | - |
| 1778111344 | 22.22° C | 58% | 1018.4 hPa | 0 mm | - | 437 W/m² | - |
| 1778108010 | 21.67° C | 59% | 1018.7 hPa | 0 mm | - | 305 W/m² | - |
| 1778107404 | 21.67° C | 60% | 1018.6 hPa | 0 mm | - | 381 W/m² | - |
| 1778105584 | 20.56° C | 60% | 1019 hPa | 0 mm | - | 547 W/m² | - |
| 1778105282 | 22.22° C | 59% | 1018.8 hPa | 0 mm | - | 376 W/m² | - |
| 1778104679 | 22.78° C | 59% | 1019.2 hPa | 0 mm | - | 826 W/m² | - |
| 1778103768 | 23.33° C | 54% | 1018.9 hPa | 0 mm | - | 797 W/m² | - |
| 1778103163 | 21.67° C | 61% | 1018.9 hPa | 0 mm | - | 472 W/m² | - |
| 1778102556 | 21.67° C | 61% | 1019.3 hPa | 0 mm | - | 342 W/m² | - |
| 1778101342 | 19.44° C | 66% | 1019.5 hPa | 0 mm | - | 596 W/m² | - |
| 1778101039 | 19.44° C | 67% | 1019.4 hPa | 0 mm | - | 436 W/m² | - |
| 1778100734 | 19.44° C | 66% | 1019.4 hPa | 0 mm | - | 363 W/m² | - |
| 1778100129 | 20° C | 64% | 1019.1 hPa | 0 mm | - | 967 W/m² | - |
| 1778099827 | 19.44° C | 68% | 1019.4 hPa | 0 mm | - | 475 W/m² | - |
| 1778098917 | 19.44° C | 66% | 1019.2 hPa | 0 mm | - | 887 W/m² | - |
| 1778097401 | 18.33° C | 69% | 1019.8 hPa | 0 mm | - | 598 W/m² | - |
* Rain latest hour (hover to see other rain measurements)
** Current wind speed in m/s (hover to see current wind gust speed)